sat.trackr.live / text

‹ back to catalog

STARLINK-5210

NORAD 54082 · 2022-136AH

PAYLOAD ACTIVE UNKNOWN

§ Identity

Operator
Country
US
Launch date
2022-10-20
Launch site
AFETR
Launch vehicle
Mass (kg)
RCS (m²)

Purposes: comms

External: N2YO · Heavens-Above · Gunter

§ Orbital elements

Epoch: 2026-09-20T22:00:03.000096Z

Period
94.81 min
Inclination
53.1592°
Eccentricity
0.0001412
Mean motion
15.18829920 rev/d
Perigee alt
508.4 km
Apogee alt
510.3 km
Semi-major
6,887.5 km
B*
5.1435e-4
RAAN
176.8262°
Arg perigee
116.4101°
Mean anomaly
111.0456°
Rev number
580

§ Raw data

STARLINK-52101 54082U 22136AH  26263.91670139  .00010540  00000+0  51435-3 0  99982 54082  53.1592 176.8262 0001412 116.4101 111.0456 15.18829920  5806

JSON: /api/v1/satellites/54082 · /tle

For live sub-satellite position, see the globe view (requires WebGL).

§ Visibility from observer

Set your observer location to see the next 7 days of passes ≥ 10°. The values pass through the URL so the page stays shareable.

No JS? Fill the form by hand. The geolocation button needs JavaScript.